Time,TemperatureF,DewpointF,PressureIn,WindDirection,WindDirectionDegrees,WindSpeedMPH,WindSpeedGustMPH,Humidity,HourlyPrecipIn,Conditions,Clouds,dailyrainin,SoftwareType,DateUTC
2013-04-21 00:00:00,75.0,-99.9,30.08,NNW,330,16.0,17.0,-999,-99.99,,,-99.99,,2013-04-21 04:00:00,
2013-04-21 00:23:00,75.0,-99.9,30.08,NNW,330,16.0,17.0,-999,-99.99,,,-99.99,,2013-04-21 04:23:00,
2013-04-21 00:33:00,75.0,-99.9,30.08,NNW,330,16.0,17.0,-999,-99.99,,,-99.99,,2013-04-21 04:33:00,
2013-04-21 00:43:00,75.0,-99.9,30.08,NNW,330,16.0,17.0,-999,-99.99,,,-99.99,,2013-04-21 04:43:00,
2013-04-21 00:53:00,75.0,-99.9,30.08,NNW,330,16.0,17.0,-999,-99.99,,,-99.99,,2013-04-21 04:53:00,
2013-04-21 01:00:00,79.0,-99.9,30.07,ENE,60,6.0,8.0,-999,-99.99,,,-99.99,,2013-04-21 05:00:00,
2013-04-21 01:22:00,79.0,-99.9,30.07,ENE,60,6.0,8.0,-999,-99.99,,,-99.99,,2013-04-21 05:22:00,
2013-04-21 01:32:00,79.0,-99.9,30.07,ENE,60,6.0,8.0,-999,-99.99,,,-99.99,,2013-04-21 05:32:00,
2013-04-21 01:43:00,79.0,-99.9,30.07,ENE,60,6.0,8.0,-999,-99.99,,,-99.99,,2013-04-21 05:43:00,
2013-04-21 01:52:00,79.0,-99.9,30.07,ENE,60,6.0,8.0,-999,-99.99,,,-99.99,,2013-04-21 05:52:00,
2013-04-21 02:00:00,79.0,-99.9,30.06,East,80,3.0,3.0,-999,-99.99,,,-99.99,,2013-04-21 06:00:00,
2013-04-21 02:22:00,79.0,-99.9,30.06,East,80,3.0,3.0,-999,-99.99,,,-99.99,,2013-04-21 06:22:00,
2013-04-21 02:32:00,79.0,-99.9,30.06,East,80,3.0,3.0,-999,-99.99,,,-99.99,,2013-04-21 06:32:00,
2013-04-21 02:42:00,79.0,-99.9,30.06,East,80,3.0,3.0,-999,-99.99,,,-99.99,,2013-04-21 06:42:00,
2013-04-21 02:52:00,79.0,-99.9,30.06,East,80,3.0,3.0,-999,-99.99,,,-99.99,,2013-04-21 06:52:00,
2013-04-21 03:00:00,78.0,-99.9,30.05,NNE,30,10.0,11.0,-999,-99.99,,,-99.99,,2013-04-21 07:00:00,
2013-04-21 03:22:00,78.0,-99.9,30.05,NNE,30,10.0,11.0,-999,-99.99,,,-99.99,,2013-04-21 07:22:00,
2013-04-21 03:32:00,78.0,-99.9,30.05,NNE,30,10.0,11.0,-999,-99.99,,,-99.99,,2013-04-21 07:32:00,
2013-04-21 03:42:00,78.0,-99.9,30.05,NNE,30,10.0,11.0,-999,-99.99,,,-99.99,,2013-04-21 07:42:00,
2013-04-21 03:52:00,78.0,-99.9,30.05,NNE,30,10.0,11.0,-999,-99.99,,,-99.99,,2013-04-21 07:52:00,
2013-04-21 04:00:00,78.0,-99.9,30.03,NE,50,14.0,16.0,-999,-99.99,,,-99.99,,2013-04-21 08:00:00,
2013-04-21 04:22:00,78.0,-99.9,30.03,NE,50,14.0,16.0,-999,-99.99,,,-99.99,,2013-04-21 08:22:00,
2013-04-21 04:32:00,78.0,-99.9,30.03,NE,50,14.0,16.0,-999,-99.99,,,-99.99,,2013-04-21 08:32:00,
2013-04-21 04:42:00,78.0,-99.9,30.03,NE,50,14.0,16.0,-999,-99.99,,,-99.99,,2013-04-21 08:42:00,
2013-04-21 04:52:00,78.0,-99.9,30.03,NE,50,14.0,16.0,-999,-99.99,,,-99.99,,2013-04-21 08:52:00,
2013-04-21 05:00:00,78.0,-99.9,30.02,East,80,9.0,9.0,-999,-99.99,,,-99.99,,2013-04-21 09:00:00,
2013-04-21 05:22:00,78.0,-99.9,30.02,East,80,9.0,9.0,-999,-99.99,,,-99.99,,2013-04-21 09:22:00,
2013-04-21 05:33:00,78.0,-99.9,30.02,East,80,9.0,9.0,-999,-99.99,,,-99.99,,2013-04-21 09:33:00,
2013-04-21 05:43:00,78.0,-99.9,30.02,East,80,9.0,9.0,-999,-99.99,,,-99.99,,2013-04-21 09:43:00,
2013-04-21 05:53:00,78.0,-99.9,30.02,East,80,9.0,9.0,-999,-99.99,,,-99.99,,2013-04-21 09:53:00,
2013-04-21 06:00:00,78.0,-99.9,30.03,ESE,120,10.0,11.0,-999,-99.99,,,-99.99,,2013-04-21 10:00:00,
2013-04-21 06:22:00,78.0,-99.9,30.03,ESE,120,10.0,11.0,-999,-99.99,,,-99.99,,2013-04-21 10:22:00,
2013-04-21 06:33:00,78.0,-99.9,30.03,ESE,120,10.0,11.0,-999,-99.99,,,-99.99,,2013-04-21 10:33:00,
2013-04-21 06:42:00,78.0,-99.9,30.03,ESE,120,10.0,11.0,-999,-99.99,,,-99.99,,2013-04-21 10:42:00,
2013-04-21 06:52:00,78.0,-99.9,30.03,ESE,120,10.0,11.0,-999,-99.99,,,-99.99,,2013-04-21 10:52:00,
2013-04-21 07:00:00,78.0,-99.9,30.05,SSE,150,11.0,13.0,-999,-99.99,,,-99.99,,2013-04-21 11:00:00,
2013-04-21 07:22:00,78.0,-99.9,30.05,SSE,150,11.0,13.0,-999,-99.99,,,-99.99,,2013-04-21 11:22:00,
2013-04-21 07:34:00,78.0,-99.9,30.05,SSE,150,11.0,13.0,-999,-99.99,,,-99.99,,2013-04-21 11:34:00,
2013-04-21 07:42:00,78.0,-99.9,30.05,SSE,150,11.0,13.0,-999,-99.99,,,-99.99,,2013-04-21 11:42:00,
2013-04-21 07:52:00,78.0,-99.9,30.05,SSE,150,11.0,13.0,-999,-99.99,,,-99.99,,2013-04-21 11:52:00,
2013-04-21 08:00:00,79.0,-99.9,30.05,South,190,11.0,13.0,-999,-99.99,,,-99.99,,2013-04-21 12:00:00,
2013-04-21 08:22:00,79.0,-99.9,30.05,South,190,11.0,13.0,-999,-99.99,,,-99.99,,2013-04-21 12:22:00,
2013-04-21 08:32:00,79.0,-99.9,30.05,South,190,11.0,13.0,-999,-99.99,,,-99.99,,2013-04-21 12:32:00,
2013-04-21 08:42:00,79.0,-99.9,30.05,South,190,11.0,13.0,-999,-99.99,,,-99.99,,2013-04-21 12:42:00,
2013-04-21 08:52:00,79.0,-99.9,30.05,South,190,11.0,13.0,-999,-99.99,,,-99.99,,2013-04-21 12:52:00,
2013-04-21 09:00:00,77.0,-99.9,30.07,SSW,200,11.0,13.0,-999,-99.99,,,-99.99,,2013-04-21 13:00:00,
2013-04-21 09:22:00,77.0,-99.9,30.07,SSW,200,11.0,13.0,-999,-99.99,,,-99.99,,2013-04-21 13:22:00,
2013-04-21 09:32:00,77.0,-99.9,30.07,SSW,200,11.0,13.0,-999,-99.99,,,-99.99,,2013-04-21 13:32:00,
2013-04-21 09:42:00,77.0,-99.9,30.07,SSW,200,11.0,13.0,-999,-99.99,,,-99.99,,2013-04-21 13:42:00,
2013-04-21 09:52:00,77.0,-99.9,30.07,SSW,200,11.0,13.0,-999,-99.99,,,-99.99,,2013-04-21 13:52:00,
2013-04-21 10:00:00,79.0,-99.9,30.09,North,0,0.0,1.0,-999,-99.99,,,-99.99,,2013-04-21 14:00:00,
2013-04-21 10:22:00,79.0,-99.9,30.09,North,0,0.0,1.0,-999,-99.99,,,-99.99,,2013-04-21 14:22:00,
2013-04-21 10:32:00,79.0,-99.9,30.09,North,0,0.0,1.0,-999,-99.99,,,-99.99,,2013-04-21 14:32:00,
2013-04-21 10:42:00,79.0,-99.9,30.09,North,0,0.0,1.0,-999,-99.99,,,-99.99,,2013-04-21 14:42:00,
2013-04-21 10:52:00,79.0,-99.9,30.09,North,0,0.0,1.0,-999,-99.99,,,-99.99,,2013-04-21 14:52:00,
2013-04-21 11:00:00,79.0,-99.9,30.09,North,0,0.0,1.0,-999,-99.99,,,-99.99,,2013-04-21 15:00:00,
2013-04-21 11:22:00,79.0,-99.9,30.09,North,0,0.0,1.0,-999,-99.99,,,-99.99,,2013-04-21 15:22:00,
2013-04-21 11:33:00,79.0,-99.9,30.09,North,0,0.0,1.0,-999,-99.99,,,-99.99,,2013-04-21 15:33:00,
2013-04-21 11:43:00,79.0,-99.9,30.09,North,0,0.0,1.0,-999,-99.99,,,-99.99,,2013-04-21 15:43:00,
2013-04-21 11:53:00,79.0,-99.9,30.09,North,0,0.0,1.0,-999,-99.99,,,-99.99,,2013-04-21 15:53:00,
2013-04-21 12:00:00,79.0,-99.9,30.09,East,80,6.0,7.0,-999,-99.99,,,-99.99,,2013-04-21 16:00:00,
2013-04-21 12:23:00,79.0,-99.9,30.09,East,80,6.0,7.0,-999,-99.99,,,-99.99,,2013-04-21 16:23:00,
2013-04-21 12:33:00,79.0,-99.9,30.09,East,80,6.0,7.0,-999,-99.99,,,-99.99,,2013-04-21 16:33:00,
2013-04-21 12:42:00,79.0,-99.9,30.09,East,80,6.0,7.0,-999,-99.99,,,-99.99,,2013-04-21 16:42:00,
2013-04-21 12:53:00,79.0,-99.9,30.09,East,80,6.0,7.0,-999,-99.99,,,-99.99,,2013-04-21 16:53:00,
2013-04-21 13:00:00,79.0,-99.9,30.07,North,0,0.0,1.0,-999,-99.99,,,-99.99,,2013-04-21 17:00:00,
2013-04-21 13:23:00,79.0,-99.9,30.07,North,0,0.0,1.0,-999,-99.99,,,-99.99,,2013-04-21 17:23:00,
2013-04-21 13:32:00,79.0,-99.9,30.07,North,0,0.0,1.0,-999,-99.99,,,-99.99,,2013-04-21 17:32:00,
2013-04-21 13:42:00,79.0,-99.9,30.07,North,0,0.0,1.0,-999,-99.99,,,-99.99,,2013-04-21 17:42:00,
2013-04-21 13:52:00,79.0,-99.9,30.07,North,0,0.0,1.0,-999,-99.99,,,-99.99,,2013-04-21 17:52:00,
2013-04-21 14:00:00,80.0,-99.9,30.06,ENE,70,5.0,6.0,-999,-99.99,,,-99.99,,2013-04-21 18:00:00,
2013-04-21 14:22:00,80.0,-99.9,30.06,ENE,70,5.0,6.0,-999,-99.99,,,-99.99,,2013-04-21 18:22:00,
2013-04-21 14:33:00,80.0,-99.9,30.06,ENE,70,5.0,6.0,-999,-99.99,,,-99.99,,2013-04-21 18:33:00,
2013-04-21 14:42:00,80.0,-99.9,30.06,ENE,70,5.0,6.0,-999,-99.99,,,-99.99,,2013-04-21 18:42:00,
2013-04-21 14:52:00,80.0,-99.9,30.06,ENE,70,5.0,6.0,-999,-99.99,,,-99.99,,2013-04-21 18:52:00,
2013-04-21 15:00:00,80.0,-99.9,30.03,SSE,160,10.0,13.0,-999,-99.99,,,-99.99,,2013-04-21 19:00:00,
2013-04-21 15:22:00,80.0,-99.9,30.03,SSE,160,10.0,13.0,-999,-99.99,,,-99.99,,2013-04-21 19:22:00,
2013-04-21 15:32:00,80.0,-99.9,30.03,SSE,160,10.0,13.0,-999,-99.99,,,-99.99,,2013-04-21 19:32:00,
2013-04-21 15:43:00,80.0,-99.9,30.03,SSE,160,10.0,13.0,-999,-99.99,,,-99.99,,2013-04-21 19:43:00,
2013-04-21 15:52:00,80.0,-99.9,30.03,SSE,160,10.0,13.0,-999,-99.99,,,-99.99,,2013-04-21 19:52:00,
2013-04-21 16:00:00,80.0,-99.9,30.01,SE,140,16.0,23.0,-999,-99.99,,,-99.99,,2013-04-21 20:00:00,
2013-04-21 16:22:00,80.0,-99.9,30.01,SE,140,16.0,23.0,-999,-99.99,,,-99.99,,2013-04-21 20:22:00,
2013-04-21 16:32:00,80.0,-99.9,30.01,SE,140,16.0,23.0,-999,-99.99,,,-99.99,,2013-04-21 20:32:00,
2013-04-21 16:42:00,80.0,-99.9,30.01,SE,140,16.0,23.0,-999,-99.99,,,-99.99,,2013-04-21 20:42:00,
2013-04-21 16:52:00,80.0,-99.9,30.01,SE,140,16.0,23.0,-999,-99.99,,,-99.99,,2013-04-21 20:52:00,
2013-04-21 17:00:00,80.0,-99.9,30.01,ESE,120,11.0,13.0,-999,-99.99,,,-99.99,,2013-04-21 21:00:00,
2013-04-21 17:22:00,80.0,-99.9,30.01,ESE,120,11.0,13.0,-999,-99.99,,,-99.99,,2013-04-21 21:22:00,
2013-04-21 17:33:00,80.0,-99.9,30.01,ESE,120,11.0,13.0,-999,-99.99,,,-99.99,,2013-04-21 21:33:00,
2013-04-21 17:43:00,80.0,-99.9,30.01,ESE,120,11.0,13.0,-999,-99.99,,,-99.99,,2013-04-21 21:43:00,
2013-04-21 17:53:00,80.0,-99.9,30.01,ESE,120,11.0,13.0,-999,-99.99,,,-99.99,,2013-04-21 21:53:00,
2013-04-21 18:00:00,79.0,-99.9,30.01,ENE,60,9.0,11.0,-999,-99.99,,,-99.99,,2013-04-21 22:00:00,
2013-04-21 18:22:00,79.0,-99.9,30.01,ENE,60,9.0,11.0,-999,-99.99,,,-99.99,,2013-04-21 22:22:00,
2013-04-21 18:33:00,79.0,-99.9,30.01,ENE,60,9.0,11.0,-999,-99.99,,,-99.99,,2013-04-21 22:33:00,
2013-04-21 18:43:00,79.0,-99.9,30.01,ENE,60,9.0,11.0,-999,-99.99,,,-99.99,,2013-04-21 22:43:00,
2013-04-21 18:53:00,79.0,-99.9,30.01,ENE,60,9.0,11.0,-999,-99.99,,,-99.99,,2013-04-21 22:53:00,
2013-04-21 19:00:00,79.0,-99.9,30.01,SE,140,9.0,10.0,-999,-99.99,,,-99.99,,2013-04-21 23:00:00,
2013-04-21 19:23:00,79.0,-99.9,30.01,SE,140,9.0,10.0,-999,-99.99,,,-99.99,,2013-04-21 23:23:00,
2013-04-21 19:32:00,79.0,-99.9,30.01,SE,140,9.0,10.0,-999,-99.99,,,-99.99,,2013-04-21 23:32:00,
2013-04-21 19:43:00,79.0,-99.9,30.01,SE,140,9.0,10.0,-999,-99.99,,,-99.99,,2013-04-21 23:43:00,
2013-04-21 19:52:00,79.0,-99.9,30.01,SE,140,9.0,10.0,-999,-99.99,,,-99.99,,2013-04-21 23:52:00,
2013-04-21 20:00:00,80.0,-99.9,30.03,East,90,5.0,6.0,-999,-99.99,,,-99.99,,2013-04-22 00:00:00,
2013-04-21 20:22:00,80.0,-99.9,30.03,East,90,5.0,6.0,-999,-99.99,,,-99.99,,2013-04-22 00:22:00,
2013-04-21 20:32:00,80.0,-99.9,30.03,East,90,5.0,6.0,-999,-99.99,,,-99.99,,2013-04-22 00:32:00,
2013-04-21 20:42:00,80.0,-99.9,30.03,East,90,5.0,6.0,-999,-99.99,,,-99.99,,2013-04-22 00:42:00,
2013-04-21 20:52:00,80.0,-99.9,30.03,East,90,5.0,6.0,-999,-99.99,,,-99.99,,2013-04-22 00:52:00,
2013-04-21 21:00:00,80.0,-99.9,30.05,East,80,8.0,9.0,-999,-99.99,,,-99.99,,2013-04-22 01:00:00,
2013-04-21 21:22:00,80.0,-99.9,30.05,East,80,8.0,9.0,-999,-99.99,,,-99.99,,2013-04-22 01:22:00,
2013-04-21 21:32:00,80.0,-99.9,30.05,East,80,8.0,9.0,-999,-99.99,,,-99.99,,2013-04-22 01:32:00,
2013-04-21 21:42:00,80.0,-99.9,30.05,East,80,8.0,9.0,-999,-99.99,,,-99.99,,2013-04-22 01:42:00,
2013-04-21 21:52:00,80.0,-99.9,30.05,East,80,8.0,9.0,-999,-99.99,,,-99.99,,2013-04-22 01:52:00,
2013-04-21 22:00:00,80.0,-99.9,30.04,ESE,110,7.0,8.0,-999,-99.99,,,-99.99,,2013-04-22 02:00:00,
2013-04-21 22:22:00,80.0,-99.9,30.04,ESE,110,7.0,8.0,-999,-99.99,,,-99.99,,2013-04-22 02:22:00,
2013-04-21 22:32:00,80.0,-99.9,30.04,ESE,110,7.0,8.0,-999,-99.99,,,-99.99,,2013-04-22 02:32:00,
2013-04-21 22:42:00,80.0,-99.9,30.04,ESE,110,7.0,8.0,-999,-99.99,,,-99.99,,2013-04-22 02:42:00,
2013-04-21 22:52:00,80.0,-99.9,30.04,ESE,110,7.0,8.0,-999,-99.99,,,-99.99,,2013-04-22 02:52:00,
2013-04-21 23:00:00,79.0,-99.9,30.04,East,90,11.0,13.0,-999,-99.99,,,-99.99,,2013-04-22 03:00:00,
2013-04-21 23:22:00,79.0,-99.9,30.04,East,90,11.0,13.0,-999,-99.99,,,-99.99,,2013-04-22 03:22:00,
2013-04-21 23:33:00,79.0,-99.9,30.04,East,90,11.0,13.0,-999,-99.99,,,-99.99,,2013-04-22 03:33:00,
2013-04-21 23:43:00,79.0,-99.9,30.04,East,90,11.0,13.0,-999,-99.99,,,-99.99,,2013-04-22 03:43:00,
2013-04-21 23:53:00,79.0,-99.9,30.04,East,90,11.0,13.0,-999,-99.99,,,-99.99,,2013-04-22 03:53:00,